Flag for Norway Weather past 2 weeks in Nøtterøy, Norway

Now
59 °F

Scattered clouds.


Feels Like: 58 °F
Forecast: 49 / 62 °F
Wind: 8 mph from South

Location: Torp

Current Time: Aug 23, 2014 at 4:26:10 PM

Latest Report: Aug 23, 2014 at 3:50 PM


Visibility: N/A

Pressure: 29.59 "Hg

Humidity: 77%

Dew point: 52 °F

Location of NøtterøyLocation

Historic Weather in Nøtterøy — Graph

°F

Nøtterøy temperature yesterday

Maximum temperature yesterday: 59 °F (at 9:20 AM)
Minimum temperature yesterday: 50 °F (at 11:20 PM)
Average temperature yesterday: 54 °F

Past Weeks' High & Low Weather Summary

 TemperatureHumidityPressure
High73 °F (Aug 9, 4:20 PM)100% (Aug 9, 3:50 AM)29.89 "Hg (Aug 9, 3:50 AM)
Low45 °F (Aug 18, 6:50 AM)49% (Aug 21, 5:20 PM)29.18 "Hg (Aug 18, 8:50 AM)
Average58 °F82%29.54 "Hg
* Reported Aug 8 3:20 PM — Aug 23 3:20 PM, Nøtterøy, Weather by CustomWeather, © 2014

Note: Actual official high and low records may vary slightly from our data, if they occured in-between our weather recording intervals... More about our weather records

Advertising

Nøtterøy weather history for previous 24 hours

 ConditionsComfort  
Time TempWeatherWind HumidityBarometerVisibility
3:20 PM
Aug 23
59 °FScattered clouds.9 mph72%29.59 "HgN/A
2:50 PM59 °FScattered clouds.6 mph72%29.59 "HgN/A
2:20 PM57 °FRain showers. Scattered clouds.5 mph77%29.59 "HgN/A
1:50 PM55 °FScattered showers. Broken clouds.5 mph77%29.59 "HgN/A
1:20 PM57 °FLight rain. Broken clouds.3 mph77%29.59 "HgN/A
12:50 PM54 °FLight rain. Broken clouds.2 mph88%29.59 "Hg6 mi
12:20 PM54 °FLight rain. Broken clouds.3 mph88%29.59 "Hg6 mi
11:50 AM55 °FRain showers. Broken clouds.3 mph88%29.59 "HgN/A
11:20 AM55 °FScattered clouds.5 mph88%29.59 "HgN/A
10:50 AM57 °FBroken clouds.2 mph82%29.59 "HgN/A
10:20 AM55 °FScattered clouds.3 mph88%29.59 "HgN/A
9:50 AM55 °FBroken clouds.7 mph94%29.59 "HgN/A
9:20 AM55 °FFog.6 mph94%29.56 "HgN/A
8:50 AM54 °FFog.7 mph94%29.59 "HgN/A
8:20 AM52 °FFog.5 mph100%29.56 "Hg3 mi
7:50 AM50 °FFog.3 mph94%29.56 "Hg2 mi
7:20 AM50 °FFog.3 mph94%29.56 "Hg1 mi
6:50 AM48 °FFog.3 mph100%29.56 "Hg0 mi
6:20 AM48 °FPassing clouds.3 mph100%29.56 "Hg0 mi
5:50 AM48 °FPassing clouds.5 mph100%29.56 "Hg0 mi
5:20 AM48 °FPassing clouds.5 mph100%29.56 "Hg4 mi
4:50 AM50 °FOvercast.3 mph94%29.59 "HgN/A
4:20 AM50 °FPassing clouds.3 mph94%29.59 "HgN/A
3:50 AM50 °FPartly cloudy.2 mph100%29.59 "HgN/A
3:20 AM50 °FLight rain. Mostly cloudy.2 mph100%29.59 "HgN/A
2:50 AM50 °FLight rain. Mostly cloudy.3 mph100%29.59 "HgN/A
2:20 AM50 °FMostly cloudy.5 mph100%29.59 "Hg4 mi
1:50 AM52 °FHeavy rain. Overcast.2 mph100%29.59 "Hg2 mi
1:20 AM50 °FLight rain. Passing clouds.3 mph100%29.59 "Hg2 mi
12:50 AM50 °FFog.3 mph100%29.59 "Hg2 mi
12:20 AM52 °FFog.1 mph94%29.62 "Hg3 mi
11:50 PM
Aug 22
52 °FFog.No wind100%29.62 "Hg3 mi
11:20 PM50 °FPassing clouds.2 mph100%29.62 "Hg4 mi
10:50 PM52 °FPassing clouds.2 mph94%29.62 "HgN/A
10:20 PM52 °FPassing clouds.No wind100%29.62 "HgN/A
9:50 PM52 °FPassing clouds.2 mph94%29.62 "HgN/A
9:20 PM52 °FThundershowers. Passing clouds.No wind94%29.62 "HgN/A
8:50 PM52 °FThunderstorms. Scattered clouds.3 mph100%29.62 "HgN/A
8:20 PM54 °FLight rain. Broken clouds.2 mph88%29.62 "HgN/A
7:50 PM54 °FScattered showers. Scattered clouds.No wind88%29.62 "HgN/A
7:20 PM54 °FSprinkles. Broken clouds.3 mph88%29.62 "HgN/A
6:50 PM55 °FSprinkles. Broken clouds.No wind88%29.62 "HgN/A
6:20 PM57 °FScattered showers. Cloudy.3 mph82%29.62 "HgN/A
5:50 PM57 °FBroken clouds.3 mph82%29.65 "HgN/A
5:20 PM57 °FScattered showers. Scattered clouds.5 mph82%29.65 "HgN/A
4:50 PM55 °FScattered showers. Scattered clouds.5 mph88%29.65 "HgN/A
4:20 PM55 °FScattered showers. Partly sunny.7 mph88%29.65 "HgN/A
Weather by CustomWeather, © 2014

See weather overviewHow to use our weather pages